| time (UTC) | temp F | wind direction | speed knots | gust knots | rain 1hr in | rain 24hr in | rain mn in | humidity % | barometer mb |
| 20260504222913 | 50 | 0.0 | 0.0 | 0.00 | 0.00 | 0.00 | 80 | 1014.0 | |
| 20260504221914 | 51 | 0.0 | 0.0 | 0.00 | 0.00 | 0.00 | 80 | 1014.0 | |
| 20260504220913 | 51 | 0.0 | 0.0 | 0.00 | 0.00 | 0.00 | 80 | 1014.0 | |
| 20260504215913 | 51 | 0.0 | 0.0 | 0.00 | 0.00 | 0.00 | 78 | 1014.2 | |
| 20260504214914 | 51 | 0.0 | 0.0 | 0.00 | 0.00 | 0.00 | 78 | 1014.2 | |
| 20260504213915 | 51 | 0.0 | 0.0 | 0.00 | 0.00 | 0.00 | 76 | 1014.3 | |
| 20260504212914 | 52 | 0.0 | 0.0 | 0.00 | 0.00 | 0.00 | 76 | 1014.4 | |
| 20260504211912 | 52 | 0.0 | 0.0 | 0.00 | 0.00 | 0.00 | 75 | 1014.2 | |
| 20260504210912 | 52 | 0.0 | 0.0 | 0.00 | 0.00 | 0.00 | 75 | 1014.2 | |
| 20260504205913 | 53 | 0.0 | 0.0 | 0.00 | 0.00 | 0.00 | 74 | 1014.2 | |
| 20260504204913 | 53 | 0.0 | 0.0 | 0.00 | 0.00 | 0.00 | 73 | 1014.4 | |
| 20260504203913 | 53 | 0.0 | 0.0 | 0.00 | 0.00 | 0.00 | 73 | 1014.4 | |
| 20260504202913 | 53 | 0.0 | 0.0 | 0.00 | 0.00 | 0.00 | 71 | 1014.4 | |
| 20260504201913 | 54 | 0.0 | 0.0 | 0.00 | 0.00 | 0.00 | 70 | 1014.5 | |
| 20260504195913 | 55 | 0.0 | 0.0 | 0.00 | 0.00 | 0.00 | 68 | 1014.4 | |
| 20260504195813 | 55 | 0.0 | 0.0 | 0.00 | 0.00 | 0.00 | 68 | 1014.5 | |
| 20260504195714 | 55 | 0.0 | 0.0 | 0.00 | 0.00 | 0.00 | 69 | 1014.5 | |
| 20260504195615 | 55 | 0.0 | 0.0 | 0.00 | 0.00 | 0.00 | 68 | 1014.5 | |
| 20260504193608 | 57 | 0.0 | 0.0 | 0.00 | 0.00 | 0.00 | 65 | 1014.4 | |
| 20260504191353 | 58 | 0.0 | 0.0 | 0.00 | 0.00 | 0.00 | 62 | 1014.2 | |
| 20260504184913 | 58 | 0.0 | 0.0 | 0.00 | 0.00 | 0.00 | 62 | 1014.0 | |
| 20260504182912 | 59 | 0.0 | 0.0 | 0.00 | 0.00 | 0.00 | 61 | 1013.7 | |
| 20260504181914 | 59 | 0.0 | 0.0 | 0.00 | 0.00 | 0.00 | 61 | 1013.7 | |
| 20260504180914 | 60 | 0.0 | 0.0 | 0.00 | 0.00 | 0.00 | 60 | 1013.8 | |
| 20260504175913 | 61 | 0.0 | 0.0 | 0.00 | 0.00 | 0.00 | 59 | 1013.6 | |
| 20260504175814 | 61 | 0.0 | 0.0 | 0.00 | 0.00 | 0.00 | 60 | 1013.6 | |
| 20260504175713 | 61 | 0.0 | 0.0 | 0.00 | 0.00 | 0.00 | 60 | 1013.6 | |
| 20260504175613 | 61 | 0.0 | 0.0 | 0.00 | 0.00 | 0.00 | 60 | 1013.6 | |
| 20260504175514 | 61 | 0.0 | 0.0 | 0.00 | 0.00 | 0.00 | 59 | 1013.6 | |
| 20260504175412 | 61 | 0.0 | 0.0 | 0.00 | 0.00 | 0.00 | 59 | 1013.7 | |
| 20260504175214 | 61 | 0.0 | 0.0 | 0.00 | 0.00 | 0.00 | 59 | 1013.6 | |
| 20260504175115 | 61 | 0.0 | 0.0 | 0.00 | 0.00 | 0.00 | 60 | 1013.6 | |
| 20260504174115 | 62 | 0.0 | 0.0 | 0.00 | 0.00 | 0.00 | 58 | 1013.5 | |
| 20260504173116 | 63 | 0.0 | 0.0 | 0.00 | 0.00 | 0.00 | 56 | 1013.2 | |
| 20260504172121 | 67 | 0.0 | 0.0 | 0.00 | 0.00 | 0.00 | 52 | 1013.0 | |
| 20260504081014 | 60 | 0.0 | 0.0 | 0.00 | 0.00 | 0.00 | 66 | 1013.2 | |
| 20260504045914 | 56 | 0.0 | 0.0 | 0.00 | 0.00 | 0.00 | 61 | 1012.2 | |
| 20260504043914 | 56 | 0.0 | 0.0 | 0.00 | 0.00 | 0.00 | 63 | 1012.2 | |
| 20260504042917 | 56 | 0.0 | 0.0 | 0.00 | 0.00 | 0.00 | 63 | 1011.9 | |
| 20260504041914 | 56 | 0.0 | 0.0 | 0.00 | 0.00 | 0.00 | 62 | 1011.8 | |
| 20260504040913 | 56 | 0.0 | 0.0 | 0.00 | 0.00 | 0.00 | 63 | 1011.9 | |
| 20260504035915 | 56 | 0.0 | 0.0 | 0.00 | 0.00 | 0.00 | 63 | 1011.7 | |
| 20260504034915 | 56 | 0.0 | 0.0 | 0.00 | 0.00 | 0.00 | 63 | 1011.9 | |
| 20260504033915 | 56 | 0.0 | 0.0 | 0.00 | 0.00 | 0.00 | 64 | 1011.8 | |
| 20260504032915 | 56 | 0.0 | 0.0 | 0.00 | 0.00 | 0.00 | 64 | 1011.7 | |
| 20260504031914 | 56 | 0.0 | 0.0 | 0.00 | 0.00 | 0.00 | 64 | 1011.7 | |
| 20260504030913 | 56 | 0.0 | 0.0 | 0.00 | 0.00 | 0.00 | 63 | 1011.5 | |
| 20260504024913 | 56 | 0.0 | 0.0 | 0.00 | 0.00 | 0.00 | 63 | 1011.3 | |
| 20260504022914 | 55 | 0.0 | 0.0 | 0.00 | 0.00 | 0.00 | 63 | 1011.3 | |
| 20260504021914 | 56 | 0.0 | 0.0 | 0.00 | 0.00 | 0.00 | 64 | 1011.2 | |
| 20260504020913 | 56 | 0.0 | 0.0 | 0.00 | 0.00 | 0.00 | 63 | 1011.2 | |
| 20260504015912 | 56 | 0.0 | 0.0 | 0.00 | 0.00 | 0.00 | 63 | 1011.2 | |
| 20260504013914 | 56 | 0.0 | 0.0 | 0.00 | 0.00 | 0.00 | 62 | 1011.1 | |
| 20260504012913 | 57 | 0.0 | 0.0 | 0.00 | 0.00 | 0.00 | 60 | 1011.1 | |
| 20260504011913 | 57 | 0.0 | 0.0 | 0.00 | 0.00 | 0.00 | 59 | 1011.0 | |
| 20260504004913 | 57 | 0.0 | 0.0 | 0.00 | 0.00 | 0.00 | 57 | 1010.9 | |
| 20260504003915 | 58 | 0.0 | 0.0 | 0.00 | 0.00 | 0.00 | 57 | 1010.9 | |
| 20260504002913 | 58 | 0.0 | 0.0 | 0.00 | 0.00 | 0.00 | 55 | 1011.0 | |
| 20260504001915 | 58 | 0.0 | 0.0 | 0.00 | 0.00 | 0.00 | 55 | 1011.0 | |
| 20260504000915 | 58 | 0.0 | 0.0 | 0.00 | 0.00 | 0.00 | 55 | 1011.0 | |
| 20260503235915 | 58 | 0.0 | 0.0 | 0.00 | 0.00 | 0.00 | 55 | 1011.0 | |
| 20260503234914 | 58 | 0.0 | 0.0 | 0.00 | 0.00 | 0.00 | 56 | 1010.9 | |
| 20260503233912 | 57 | 0.0 | 0.0 | 0.00 | 0.00 | 0.00 | 56 | 1011.0 | |
| 20260503232912 | 57 | 0.0 | 0.0 | 0.00 | 0.00 | 0.00 | 57 | 1010.9 | |
| 20260503231914 | 57 | 0.0 | 0.0 | 0.00 | 0.00 | 0.00 | 57 | 1010.9 | |
| 20260503230915 | 57 | 0.0 | 0.0 | 0.00 | 0.00 | 0.00 | 57 | 1010.9 | |
| 20260503225913 | 57 | 0.0 | 0.0 | 0.00 | 0.00 | 0.00 | 58 | 1010.9 | |
| 20260503224914 | 57 | 0.0 | 0.0 | 0.00 | 0.00 | 0.00 | 57 | 1011.1 | |
| 20260503223916 | 57 | 0.0 | 0.0 | 0.00 | 0.00 | 0.00 | 58 | 1011.2 |